Retour au catalogue

STARLINK-2428

ActifCommunicationsVLEO
NORAD 48099·PAYLOAD·🇺🇸 United States

Lancé Apr 7, 2021 depuis Cape Canaveral Space Force Station

Loading…

Prochains Passages (prochaines 24 heures)

TLE

FraisSource: CelesTrak SupGP

Époque: Sep 15, 2026, 01:54 UTC

1 48099C 21027H   26258.07965278  .00016761  00000+0  53906-3 0  2583
2 48099  53.1609   6.4151 0001593  79.8556 214.0770 15.31688757    14

Suivez STARLINK-2428 en temps réel avec AllMySat

Download on the App Store